Tracking 30995 objects as of 7-Jul-2025
HD Live streaming from Space Station
objects crossing your sky now

INSAT 2R (ARABSAT 1C)

Track INSAT 2R (ARABSAT 1C) now!
INSAT 2R (ARABSAT 1C) is classified as:


NORAD ID: 21894
Int'l Code: 1992-010B
Perigee: 36,134.5 km
Apogee: 36,356.4 km
Inclination: 14.1 °
Period: 1,459.2 minutes
Semi major axis: 42616 km
RCS: 2.2387 m2 (large)
Launch date: February 26, 1992
Source: India (IND)
Launch site: FRENCH GUIANA (FRGUI)
Your satellite tracking list
Your tracking list is empty




NASA's NSSDC Master Catalog

Two Line Element Set (TLE):
1 21894U 92010B   25187.07820834  .00000030  00000-0  00000-0 0  9994
2 21894  14.0905  14.1638 0026038 266.9898 100.5395  0.98681911120835
Source of the keplerian elements: AFSPC